Regional Weather Roundup
Issued by NWS Cleveland, OH

Home | Current Version | Previous Version | Graphics & Text | Print | Product List | Glossary On
Versions: 1 2 3 4 5 6 7 8 9 10 11 12 13 14 15 16 17 18 19 20 21 22 23 24 25 26 27 28 29 30 31 32 33 34 35 36 37 38 39 40 41 42 43 44 45 46 47 48 49 50
000
ASUS41 KCLE 240210
RWRCLE
OHIO REGIONAL WEATHER ROUNDUP
NATIONAL WEATHER SERVICE CLEVELAND, OH
1000 PM EDT MON OCT 23 2017

NOTE: "FAIR" INDICATES FEW OR NO CLOUDS BELOW 12,000 FEET WITH NO
SIGNIFICANT WEATHER AND/OR OBSTRUCTIONS TO VISIBILITY.

OHZ001>008-015>018-024>027-034-035-043-044-240300-
   NORTHWEST OHIO

CITY           SKY/WX    TMP DP  RH WIND       PRES   REMARKS
DEFIANCE       LGT RAIN  54  51  90 W9G20     29.56R
FINDLAY        LGT RAIN  55  51  86 SW20G25   29.57S
TOLEDO EXPRESS RAIN      55  55 100 W20G28    29.52R FOG
TOLEDO EXEC    LGT RAIN  56  54  93 SW20      29.53S FOG
LIMA           LGT RAIN  52  51  97 W15       29.61R
$$

OHZ009>014-019>023-028>033-038-089-240300-
   NORTHEAST OHIO

CITY           SKY/WX    TMP DP  RH WIND       PRES   REMARKS
CLE-HOPKINS    CLOUDY    60  54  80 S16G26    29.60F
CLE-LAKEFRONT  LGT RAIN  59  54  83 S17G28    29.58S
CUY CO. ARPT   LGT RAIN  59  55  88 S16G25    29.61F
LORAIN-ELYRIA  CLOUDY    58  50  75 S16       29.58F
ASHTABULA      CLOUDY    57  55  93 S20G29    29.66R
AKRON-CANTON   CLOUDY    57  53  86 S17       29.64F
WOOSTER        CLOUDY    56  54  93 S13       29.63S
MANSFIELD      LGT RAIN  56  55  97 S15       29.60F
YOUNGSTOWN     LGT RAIN  56  54  93 SE9       29.67F
$$

OHZ042-051>053-060>062-070>072-077>081-240300-
  SOUTHWEST OHIO

CITY           SKY/WX    TMP DP  RH WIND       PRES   REMARKS
CINC-COVINGTON LGT RAIN  52  52 100 W15       29.72R FOG
CINC-LUNKEN    LGT RAIN  54  52  93 W15G24    29.73R
HAMILTON       RAIN      54  53  97 W9G21     29.72R FOG
DAYTON         LGT RAIN  51  51 100 W14       29.67R
WRIGHT-PAT AFB LGT RAIN  54  54 100 W14       29.65R
DAYTON GENERAL LGT RAIN  52  50  93 W10G23    29.68R
WILMINGTON     LGT RAIN  53  53 100 SW17      29.67R FOG
$$

OHZ036-037-039>041-045>050-054>059-063>069-073>076-082>088-240300-
  CENTRAL AND SOUTHEAST OHIO

CITY           SKY/WX    TMP DP  RH WIND       PRES   REMARKS
COLUMBUS       LGT RAIN  58  56  93 S12       29.63S
OSU AIRPORT    CLOUDY    57  57 100 S13       29.62S
BOLTON FIELD   RAIN      56  55  96 SW16G22   29.64S
RICKENBACK AFB CLOUDY    56  56  99 SW18G28   29.65R
NEWARK         CLOUDY    58  54  86 S13       29.64F
MARION         CLOUDY    57  54  89 S12       29.60F
LANCASTER      CLOUDY    57  55  93 S10       29.66R
ZANESVILLE     CLOUDY    57  53  86 S14       29.66S
NEW PHILLY     NOT AVBL
$$




USA.gov is the U.S. government's official web portal to all federal, state and local government web resources and services.